Location: Unspecified
(58.7730°N, 5.8460°E)
Time: 07:30:36
(UTC+01:00)

Cosmos 1674 - Visible Passes

Search period start: 05 March 2015 00:00
Search period end: 15 March 2015 00:00
Orbit: 508 x 535 km, 82.5° (Epoch: 03 March)

Date Brightness Start Highest point End Pass type
(mag) Time Alt. Az. Time Alt. Az. Time Alt. Az.
05 Mar 5.3 21:47:46 10° N 21:48:30 14° NNE 21:48:30 14° NNE visible
05 Mar 5.9 23:23:11 10° NNW 23:23:39 13° NNW 23:23:39 13° NNW visible
06 Mar 5.2 21:34:45 10° N 21:35:39 14° NNE 21:35:39 14° NNE visible
06 Mar 5.7 23:10:04 10° NNW 23:10:47 15° NNW 23:10:47 15° NNW visible
07 Mar 5.1 21:21:44 10° NNE 21:22:47 14° NNE 21:22:47 14° NNE visible
07 Mar 5.4 22:56:57 10° NNW 22:57:56 17° NNW 22:57:56 17° NNW visible
08 Mar 5.0 21:08:43 10° NNE 21:09:56 14° NNE 21:09:56 14° NNE visible
08 Mar 5.2 22:43:49 10° NNW 22:45:05 20° NNW 22:45:05 20° NNW visible
09 Mar 4.9 20:55:42 10° NNE 20:57:05 14° NE 20:57:05 14° NE visible
09 Mar 4.9 22:30:41 10° NNW 22:32:13 23° NNW 22:32:13 23° NNW visible
10 Mar 4.9 20:42:42 10° NNE 20:44:13 14° NE 20:44:13 14° NE visible
10 Mar 4.6 22:17:32 10° NNW 22:19:22 27° N 22:19:22 27° N visible
10 Mar 5.9 23:54:22 10° NW 23:54:30 11° NW 23:54:30 11° NW visible
11 Mar 4.9 20:29:44 10° NNE 20:31:22 13° NE 20:31:22 13° NE visible
11 Mar 4.3 22:04:23 10° N 22:06:30 31° N 22:06:30 31° N visible
11 Mar 5.8 23:41:03 10° NW 23:41:39 12° NW 23:41:39 12° NW visible
12 Mar 4.9 20:16:48 10° NNE 20:18:17 12° NE 20:18:31 12° NE visible
12 Mar 3.9 21:51:14 10° N 21:53:39 36° N 21:53:39 36° N visible
12 Mar 5.6 23:27:44 10° NW 23:28:48 15° NW 23:28:48 15° NW visible
13 Mar 4.9 20:03:56 10° NNE 20:05:01 11° NE 20:05:40 11° ENE visible
13 Mar 3.6 21:38:03 10° N 21:40:48 40° NNE 21:40:48 40° NNE visible
13 Mar 5.3 23:14:27 10° NW 23:15:57 17° WNW 23:15:57 17° WNW visible
14 Mar 5.0 19:51:22 10° NE 19:51:43 10° NE 19:52:12 10° NE visible
14 Mar 3.3 21:24:53 10° N 21:27:58 43° NE 21:27:58 43° NE visible
14 Mar 5.1 23:01:10 10° NW 23:03:07 20° WNW 23:03:07 20° WNW visible
